Home   Weather   Dothan   Past weeks
Flag for USA

Past Weather in Dothan, Alabama, USA — Yesterday and Last 2 Weeks

Now
80 °F

Sunny.


Feels Like: 85 °F
Forecast: 94 / 73 °F
Wind: No wind

Location: Dothan Airport

Current Time: Jul 16, 2019 at 8:23:46 am

Latest Report: Jul 16, 2019 at 7:53 am


Visibility: 10 mi

Pressure: 30.17 "Hg

Humidity: 81%

Dew Point: 74 °F

Location of DothanLocation

Past Weather in Dothan — Graph

°F

Dothan Temperature Yesterday

Maximum temperature yesterday: 94 °F (at 3:53 pm)
Minimum temperature yesterday: 74 °F (at 1:53 am)
Average temperature yesterday: 81 °F

High & Low Weather Summary for the Past Weeks

 TemperatureHumidityPressure
High98 °F (Jul 2, 12:53 pm)94% (Jul 11, 4:20 am)30.19 "Hg (Jul 11, 4:20 am)
Low73 °F (Jul 12, 11:53 pm)33% (Jul 4, 2:53 pm)29.85 "Hg (Jul 8, 5:53 pm)
Average83 °F71%30.02 "Hg
* Reported Jul 1 6:53 am — Jul 16 6:53 am, Dothan. Weather by CustomWeather, © 2019

Note: Actual official high and low records may vary slightly from our data, if they occured in-between our weather recording intervals... More about our weather records

Advertising

Dothan Weather History for the Previous 24 Hours

Scroll right to see more
 ConditionsComfort  
Time TempWeatherWind HumidityBarometerVisibility
6:53 am
Tue, Jul 16
76 °FSunny.No wind88%30.16 "Hg10 mi
5:53 am73 °FSunny.No wind90%30.14 "Hg9 mi
4:53 am73 °FClear.No wind94%30.12 "Hg9 mi
3:53 am74 °FClear.No wind91%30.11 "Hg9 mi
2:53 am74 °FClear.No wind91%30.11 "Hg10 mi
1:53 am75 °FClear.No wind88%30.12 "Hg10 mi
12:53 am75 °FClear.No wind85%30.12 "Hg10 mi
11:53 pm
Mon, Jul 15
76 °FClear.No wind85%30.14 "Hg10 mi
10:53 pm76 °FClear.5 mph88%30.12 "Hg10 mi
9:53 pm77 °FClear.5 mph88%30.12 "Hg10 mi
8:53 pm78 °FClear.3 mph84%30.12 "Hg10 mi
7:53 pm79 °FClear.No wind82%30.11 "Hg10 mi
6:53 pm80 °FSunny.6 mph79%30.11 "Hg10 mi
5:53 pm82 °FSunny.5 mph74%30.10 "Hg10 mi
5:43 pm82 °FSunny.8 mph70%30.12 "Hg10 mi
5:28 pm82 °FThundershowers. Scattered clouds.6 mph70%30.12 "Hg10 mi
5:13 pm80 °FThunderstorms. Partly sunny.8 mph76%30.14 "Hg8 mi
5:01 pm83 °FThundershowers. Broken clouds.14 mph65%30.14 "Hg5 mi
3:53 pm94 °FScattered clouds.8 mph43%30.09 "Hg10 mi
2:53 pm92 °FPassing clouds.8 mph47%30.11 "Hg10 mi
1:53 pm93 °FScattered clouds.10 mph46%30.12 "Hg10 mi
12:53 pm91 °FScattered clouds.7 mph52%30.14 "Hg10 mi
11:53 am91 °FPassing clouds.13 mph50%30.15 "Hg10 mi
10:53 am89 °FSunny.8 mph52%30.16 "Hg10 mi
9:53 am86 °FSunny.5 mph63%30.16 "Hg10 mi
8:53 am82 °FSunny.8 mph67%30.15 "Hg10 mi
Weather by CustomWeather, © 2019

See weather overview

LIVE PARTIAL LUNAR ECLIPSE – Watch the eclipse as it happens